This is the latest recevied weather packets stored in our database for station/object KF4LQQ-13. If no packets are shown the sender has not sent any weather packets the latest 10 day(s).
| Time | Temp. | Humidity | Pressure | Rain* | Wind** | Luminosity | Snow |
|---|---|---|---|---|---|---|---|
| 1777303350 | 26.11° C | - | 1013.7 hPa | 0 mm | - | - | - |
| 1777303018 | 25.56° C | - | 1013.7 hPa | 0 mm | - | - | - |
| 1777302750 | 25.56° C | - | 1013.7 hPa | 0 mm | - | - | - |
| 1777302150 | 25.56° C | - | 1013.7 hPa | 0 mm | - | - | - |
| 1777301549 | 25.56° C | - | 1013.7 hPa | 0 mm | - | - | - |
| 1777301061 | 25° C | - | 1013.8 hPa | 0 mm | - | - | - |
| 1777300948 | 25° C | - | 1013.8 hPa | 0 mm | - | - | - |
| 1777300348 | 24.44° C | - | 1013.6 hPa | 0 mm | - | - | - |
| 1777299746 | 24.44° C | - | 1013.6 hPa | 0 mm | - | - | - |
| 1777298546 | 23.89° C | - | 1013.2 hPa | 0 mm | - | - | - |
| 1777298225 | 23.33° C | - | 1013.1 hPa | 0 mm | - | - | - |
| 1777297945 | 23.33° C | - | 1013.1 hPa | 0 mm | - | - | - |
| 1777297345 | 23.33° C | - | 1013 hPa | 0 mm | - | - | - |
| 1777296744 | 22.78° C | - | 1012.9 hPa | 0 mm | - | - | - |
| 1777296144 | 22.78° C | - | 1012.8 hPa | 0 mm | - | - | - |
| 1777295543 | 22.22° C | - | 1012.9 hPa | 0 mm | - | - | - |
| 1777294942 | 21.67° C | - | 1012.9 hPa | 0 mm | - | - | - |
| 1777294342 | 21.67° C | - | 1012.9 hPa | 0 mm | - | - | - |
| 1777293741 | 21.67° C | - | 1012.7 hPa | 0 mm | - | - | - |
| 1777293140 | 21.11° C | - | 1012.7 hPa | 0 mm | - | - | - |
| 1777293086 | 21.67° C | - | 1012.3 hPa | 0 mm | - | - | - |
| 1777292540 | 21.11° C | - | 1012.5 hPa | 0 mm | - | - | - |
| 1777291939 | 21.67° C | - | 1012.5 hPa | 0 mm | - | - | - |
| 1777291339 | 22.22° C | - | 1012.4 hPa | 0 mm | - | - | - |
| 1777290739 | 21.67° C | - | 1012.3 hPa | 0 mm | - | - | - |
* Rain since midnight (hover to see other rain measurements)
** Current wind speed in m/s (hover to see current wind gust speed)